Temperature
4 4 3 3 3 3 3 2 2 2 2 3 3 4 4 4 4 4 3 3 3 3 3 3 3 3 3 3 3 3 3 3 3 3 3 3 3 4
3 3 3 3 3 3 2 2 2 2 1 2 3 3 3 3 3 3 3 3 3 3 3 3 3 3 3 3 3 3 2 2 2 3 3 3 3 3
3 3 3 3 2 2 2 2 1 1 1 2 2 2 2 2 3 3 2 3 3 3 2 2 3 2 2 2 2 2 2 2 2 2 2 2 2 3
3 3 3 2 2 2 2 2 1 1 1 1 2 2 2 2 2 2 2 2 2 2 2 2 2 2 2 2 2 2 2 2 2 2 2 2 2 2
2 2 2 2 2 2 1 1 1 1 1 1 1 1 1 2 2 2 2 2 2 2 1 1 1 1 1 1 1 1 1 1 1 2 2 2 2 2
2 2 2 1 1 1 1 1 1 1 1 1 1 1 1 1 1 1 1 1 1 1 1 1 1 1 1 1 1 1 1 1 1 1 2 2 2 2
2 1 1 1 1 1 1 1 1 1 0 0 0 0 0 0 0 0 0 0 1 1 1 1 1 1 1 1 1 1 1 1 1 1 1 1 1 1
1 1 1 1 1 0 0 0 0 0 -0 -0 -0 -0 -0 -0 -0 -1 -1 -1 -0 -0 0 0 0 0 0 0 0 0 0 0 0 1 1 1 1 1
1 1 1 0 0 0 0 -0 -0 -0 -0 -1 -1 -1 -1 -1 -1 -1 -1 -1 -1 -1 -1 -0 -0 -0 -0 -0 -0 -0 -0 -0 0 0 0 0 0 1
0 0 0 0 -0 -0 -0 -0 -0 -0 -1 -1 -1 -1 -1 -1 -1 -1 -1 -1 -1 -1 -1 -1 -0 -0 -0 -0 -1 -1 -1 -0 -0 -0 -0 -0 -0 -0
0 -0 -0 -0 -0 -1 -1 -1 -1 -1 -1 -1 -1 -1 -1 -2 -2 -2 -2 -2 -2 -2 -2 -2 -1 -1 -1 -1 -1 -1 -1 -1 -1 -1 -1 -1 -1 -0
-0 -0 -1 -1 -1 -1 -1 -1 -1 -1 -1 -1 -1 -1 -2 -2 -2 -2 -2 -3 -3 -3 -2 -2 -2 -2 -2 -1 -1 -1 -1 -1 -1 -1 -1 -1 -1 -1
-1 -1 -1 -1 -1 -1 -2 -2 -2 -2 -2 -2 -2 -2 -2 -2 -2 -2 -2 -3 -3 -3 -3 -3 -3 -3 -3 -3 -2 -2 -2 -1 -1 -1 -1 -1 -1 -1
-1 -1 -1 -2 -2 -2 -2 -2 -2 -2 -2 -2 -2 -2 -2 -2 -2 -2 -2 -3 -3 -3 -3 -3 -3 -3 -3 -3 -3 -2 -2 -2 -2 -2 -1 -1 -2 -1
-2 -2 -2 -2 -2 -2 -2 -2 -3 -3 -3 -3 -3 -3 -3 -3 -3 -3 -3 -3 -3 -3 -3 -3 -3 -3 -3 -3 -3 -3 -3 -2 -2 -2 -2 -2 -2 -2
-2 -2 -2 -2 -3 -3 -3 -3 -3 -3 -3 -3 -3 -3 -3 -3 -3 -3 -3 -3 -3 -3 -3 -3 -3 -3 -3 -3 -3 -3 -3 -3 -3 -3 -2 -2 -2 -2
-3 -3 -3 -3 -3 -3 -3 -3 -3 -3 -3 -3 -3 -3 -3 -3 -3 -3 -3 -3 -3 -3 -3 -3 -3 -3 -3 -3 -3 -3 -3 -3 -3 -3 -3 -3 -2 -2
-3 -3 -3 -3 -3 -4 -4 -4 -4 -4 -4 -4 -4 -4 -4 -4 -4 -4 -4 -4 -4 -4 -4 -4 -3 -3 -3 -3 -4 -4 -4 -4 -4 -3 -3 -3 -3 -3
-3 -4 -4 -4 -4 -4 -4 -4 -4 -4 -4 -4 -4 -4 -4 -4 -4 -4 -4 -4 -4 -4 -4 -4 -4 -4 -4 -4 -4 -4 -4 -4 -4 -4 -4 -4 -4 -3
-4 -4 -4 -4 -4 -4 -4 -4 -4 -4 -4 -4 -4 -4 -4 -5 -5 -4 -4 -4 -4 -4 -4 -4 -4 -5 -5 -5 -5 -4 -4 -4 -4 -4 -4 -4 -4 -3
-4 -4 -4 -4 -4 -4 -4 -5 -5 -5 -5 -5 -5 -5 -5 -5 -5 -5 -5 -5 -5 -5 -5 -5 -5 -5 -5 -5 -5 -5 -4 -4 -5 -5 -5 -4 -4 -4
-4 -4 -4 -5 -5 -5 -5 -5 -5 -5 -5 -5 -5 -5 -5 -5 -5 -5 -5 -5 -5 -5 -5 -5 -5 -5 -5 -5 -5 -5 -5 -4 -4 -4 -4 -5 -5 -5
-4 -5 -5 -5 -5 -5 -5 -5 -5 -5 -5 -5 -5 -5 -5 -5 -5 -5 -5 -5 -5 -5 -5 -5 -5 -5 -5 -5 -6 -6 -5 -5 -5 -5 -4 -4 -4 -5
Wind_Speed
3 3 2 2 2 2 2 3 3 4 5 4 3 3 5 6 7 7 7 8 8 9 10 10 10 10 10 11 11 11 11 12 12 12 13 12 13 13
3 3 3 2 2 2 2 2 3 4 5 3 3 4 5 6 7 7 7 8 7 8 9 9 9 9 10 10 10 11 11 12 12 12 12 12 13 13
3 3 4 3 2 2 2 2 3 4 7 6 4 4 4 4 5 6 6 6 6 8 9 10 9 9 10 10 11 11 12 12 12 12 12 12 13 13
4 4 4 3 3 3 3 3 4 4 5 7 5 3 3 3 3 4 5 5 6 8 9 10 9 9 10 11 11 11 12 12 12 12 12 13 13 13
4 5 4 4 4 4 4 4 4 4 4 5 6 3 2 2 3 4 4 4 5 7 8 9 10 10 10 11 11 11 11 11 11 12 12 13 13 13
4 4 4 5 6 5 4 5 4 4 4 4 4 4 3 2 1 3 4 4 4 5 6 8 9 10 10 11 11 11 11 10 11 11 12 12 12 12
3 4 4 5 6 5 4 4 4 4 3 4 4 4 3 2 2 2 4 4 4 2 4 5 5 5 7 9 10 11 10 10 10 11 11 12 12 12
4 4 4 5 6 7 8 7 6 5 5 4 4 4 5 4 3 3 3 4 4 2 3 5 3 4 5 6 9 10 10 10 10 11 11 11 11 11
4 3 3 4 4 4 6 7 7 8 8 6 6 6 6 5 4 3 3 4 5 4 3 4 3 5 5 8 10 9 9 10 11 11 11 10 10 10
4 4 4 4 4 4 3 4 4 5 6 6 6 6 6 5 4 4 4 4 5 3 2 4 3 4 6 6 8 9 10 10 10 10 10 10 9 10
4 4 4 5 7 6 4 4 5 5 6 7 8 7 7 7 5 2 2 3 4 3 1 2 3 4 4 4 6 9 10 10 10 10 9 9 9 9
3 3 6 6 7 6 4 4 6 5 3 3 4 5 5 5 5 4 3 3 3 3 2 1 2 2 3 3 3 5 6 8 10 9 8 9 9 6
3 3 4 7 7 7 6 5 6 4 3 3 3 3 3 3 3 3 4 4 4 4 2 1 2 2 3 3 3 3 4 4 5 6 8 10 9 7
4 3 4 7 7 6 5 5 5 3 2 2 3 3 3 3 3 3 4 5 6 6 5 4 3 3 3 4 4 3 4 4 3 4 5 8 9 9
3 5 6 6 5 4 4 4 2 2 2 3 3 4 3 3 2 2 2 3 4 5 6 5 4 4 4 4 4 4 4 3 3 3 4 4 4 4
2 4 4 4 2 2 2 2 1 2 2 3 3 3 2 2 2 2 2 2 3 3 4 4 4 4 4 5 5 5 4 3 3 4 4 4 4 4
1 1 1 1 1 1 1 1 1 1 2 2 2 2 2 2 3 2 2 2 2 4 4 3 3 4 5 5 4 5 4 4 4 4 4 5 5 4
1 1 1 2 2 2 2 2 2 2 2 2 2 2 3 3 3 2 2 2 3 4 4 3 3 3 2 3 5 5 3 4 4 4 4 4 6 5
0 1 2 2 2 2 2 2 3 2 2 2 3 3 3 3 3 3 2 2 3 4 4 3 2 2 3 4 3 3 3 4 4 4 4 4 6 6
1 2 2 2 2 2 3 3 3 2 2 3 3 3 3 3 3 3 3 3 3 3 3 2 2 2 3 4 3 3 4 4 3 4 5 5 5 7
2 2 2 2 2 2 2 3 3 3 3 3 3 3 3 3 3 3 3 4 3 3 3 3 3 4 2 1 2 3 3 4 4 4 5 5 5 4
2 2 2 2 2 2 2 2 2 3 3 3 3 3 3 3 3 4 3 3 3 3 3 3 2 2 1 2 3 4 4 4 6 7 6 5 3 3
2 2 2 2 2 2 2 2 3 3 3 3 3 3 3 3 3 3 3 3 2 2 2 2 2 1 2 2 3 3 4 5 4 5 5 6 6 7
Wind_Direction
214 215 226 236 230 227 218 212 225 278 285 271 276 286 296 288 289 291 288 286 295 298 300 300 302 304 304 302 300 299 300 298 294 292 293 293 295 297
217 211 229 235 227 222 223 227 224 237 266 272 269 291 302 300 299 297 287 293 297 301 302 301 302 304 305 305 303 299 297 298 296 295 293 293 294 296
224 219 233 226 225 230 230 231 235 236 258 277 273 287 288 289 310 310 301 296 296 303 303 302 301 303 305 303 302 300 298 298 298 297 293 290 292 292
229 227 239 234 231 234 232 237 242 241 249 274 286 289 278 289 305 305 311 305 298 301 305 305 304 305 304 303 301 299 297 296 295 294 293 291 291 290
226 229 236 229 239 242 236 237 244 251 248 263 282 283 282 294 313 308 308 305 307 305 305 307 305 304 304 302 302 300 297 294 294 291 290 291 290 290
235 236 238 234 237 239 240 237 239 247 252 260 273 281 278 282 297 307 317 313 307 309 307 307 302 302 302 300 300 300 300 298 297 293 289 289 289 288
243 245 246 247 246 247 248 238 228 236 246 255 265 279 280 290 286 284 298 308 302 288 307 307 305 304 302 299 297 299 299 298 300 298 292 289 286 286
244 255 254 254 259 264 262 253 236 232 236 240 251 263 267 263 264 273 288 311 302 300 312 300 299 295 298 292 297 299 301 304 305 305 302 295 289 289
241 250 262 262 266 265 265 265 259 250 241 232 241 249 257 252 253 264 267 274 273 286 304 285 287 286 293 292 299 301 308 310 308 307 306 301 297 295
241 241 247 257 256 256 247 259 261 258 254 243 238 246 248 251 242 243 253 270 275 273 267 272 286 287 301 299 300 306 314 313 310 308 306 303 303 303
256 254 250 253 260 255 238 251 266 267 262 253 252 258 264 265 255 243 254 279 287 281 242 266 285 298 290 287 302 310 312 317 319 315 312 310 310 307
274 264 258 260 265 261 236 238 258 263 262 267 263 265 264 263 261 236 230 251 277 276 245 270 281 317 306 290 303 314 314 317 319 321 322 324 320 315
265 270 265 266 271 272 260 246 252 253 246 250 259 259 258 255 256 247 236 235 249 257 240 238 266 272 267 292 301 305 310 315 315 315 322 323 319 315
256 259 264 270 274 275 272 264 256 248 237 246 259 265 265 265 262 258 256 252 246 249 245 234 241 255 273 288 291 302 311 308 311 314 314 317 316 314
261 265 273 275 277 275 274 262 249 232 236 250 257 260 257 255 257 262 266 270 273 269 261 253 246 254 254 267 285 294 301 303 304 313 314 315 311 313
276 268 276 286 290 281 274 269 249 230 237 245 255 264 267 258 257 254 269 284 293 289 283 274 258 248 258 264 268 283 292 290 306 311 309 309 304 295
277 305 330 315 298 288 286 286 290 271 260 254 253 267 277 277 275 270 267 283 280 288 298 299 292 271 252 253 265 273 284 295 298 305 312 311 306 300
250 256 267 262 258 257 254 266 263 262 265 262 259 261 266 270 277 274 270 271 277 280 284 295 310 321 308 277 239 256 273 286 305 308 305 302 303 305
245 254 259 260 262 255 245 249 258 258 256 257 260 262 266 268 269 268 272 278 281 282 286 287 290 297 304 303 295 236 263 296 306 307 304 298 297 300
253 250 259 262 262 256 248 252 256 256 254 255 257 256 255 260 263 265 267 271 280 287 291 289 273 265 262 274 283 290 282 279 293 300 305 304 298 294
260 260 263 264 265 263 256 247 247 249 253 258 256 257 254 252 257 262 269 274 278 278 280 280 275 284 277 283 291 303 301 297 291 288 297 303 309 311
254 255 264 263 260 260 259 254 252 253 251 252 255 258 259 253 250 252 257 264 270 268 275 288 300 292 250 255 281 296 309 320 321 316 301 277 276 284
256 258 261 262 260 261 261 258 257 258 254 252 253 256 261 266 259 254 259 259 256 265 280 290 300 287 260 251 274 294 304 317 327 334 329 326 309 294
Height
1482 1483 1483 1483 1483 1483 1483 1484 1483 1480 1477 1476 1477 1477 1476 1475 1474 1473 1472 1471 1470 1469 1468 1468 1467 1466 1465 1464 1463 1462 1462 1461 1460 1459 1459 1458 1457 1457
1478 1478 1479 1479 1479 1479 1479 1479 1479 1478 1475 1472 1473 1473 1472 1471 1470 1469 1468 1467 1466 1465 1464 1462 1462 1461 1460 1459 1458 1457 1457 1456 1455 1454 1453 1452 1452 1451
1474 1474 1474 1475 1475 1475 1475 1475 1474 1474 1471 1469 1469 1469 1468 1467 1466 1465 1464 1463 1462 1461 1459 1458 1457 1456 1455 1454 1453 1452 1451 1450 1449 1448 1447 1446 1446 1445
1470 1470 1470 1470 1470 1471 1470 1470 1470 1470 1468 1465 1464 1464 1463 1463 1462 1461 1459 1459 1458 1456 1455 1454 1452 1451 1450 1449 1448 1447 1446 1445 1443 1442 1441 1440 1440 1439
1466 1466 1466 1466 1466 1466 1466 1466 1466 1465 1464 1463 1461 1460 1459 1459 1457 1456 1455 1454 1453 1452 1451 1449 1448 1447 1445 1444 1443 1442 1440 1439 1437 1436 1435 1435 1434 1433
1462 1462 1462 1462 1462 1462 1462 1462 1462 1461 1460 1459 1458 1457 1456 1455 1454 1452 1450 1450 1449 1448 1447 1445 1444 1442 1441 1440 1438 1437 1435 1433 1432 1430 1429 1429 1428 1428
1458 1458 1458 1458 1458 1458 1458 1458 1457 1457 1456 1455 1454 1453 1452 1451 1450 1448 1447 1445 1444 1444 1442 1441 1439 1438 1437 1435 1433 1432 1430 1429 1427 1425 1424 1423 1423 1422
1453 1453 1454 1454 1454 1454 1454 1453 1453 1453 1452 1451 1450 1449 1448 1448 1447 1446 1444 1442 1440 1440 1438 1436 1436 1434 1432 1431 1429 1428 1426 1424 1423 1421 1419 1418 1418 1417
1449 1449 1449 1449 1449 1449 1449 1449 1448 1448 1448 1448 1446 1445 1445 1445 1444 1442 1441 1439 1438 1437 1435 1432 1431 1429 1428 1427 1425 1424 1422 1420 1418 1417 1416 1414 1413 1412
1445 1445 1445 1445 1445 1445 1444 1444 1444 1443 1443 1443 1442 1442 1441 1441 1440 1439 1438 1436 1434 1433 1432 1428 1426 1425 1424 1423 1421 1420 1418 1416 1414 1413 1411 1410 1409 1408
1441 1441 1441 1441 1440 1440 1440 1439 1439 1438 1438 1438 1438 1438 1437 1437 1436 1435 1433 1432 1429 1428 1428 1425 1422 1421 1419 1418 1417 1416 1414 1412 1410 1409 1407 1406 1405 1404
1437 1437 1437 1436 1436 1436 1435 1435 1434 1433 1433 1433 1433 1433 1433 1432 1431 1431 1430 1428 1426 1424 1423 1422 1420 1418 1415 1413 1413 1412 1410 1409 1407 1406 1404 1403 1401 1400
1432 1432 1432 1432 1431 1431 1431 1430 1429 1429 1429 1428 1428 1428 1428 1427 1427 1426 1426 1425 1423 1421 1421 1420 1418 1416 1415 1411 1409 1408 1407 1406 1404 1403 1401 1400 1399 1397
1428 1428 1428 1427 1427 1426 1426 1425 1425 1425 1425 1424 1424 1423 1423 1423 1422 1422 1421 1421 1420 1419 1418 1417 1415 1414 1412 1408 1406 1404 1404 1403 1401 1400 1398 1397 1396 1394
1424 1424 1424 1423 1422 1422 1422 1421 1421 1421 1420 1420 1419 1419 1419 1419 1418 1418 1417 1417 1416 1415 1414 1413 1412 1411 1409 1407 1404 1402 1400 1399 1398 1397 1395 1394 1392 1391
1420 1420 1420 1419 1418 1418 1418 1417 1417 1417 1416 1416 1415 1415 1415 1415 1414 1414 1413 1412 1411 1411 1411 1410 1409 1407 1405 1404 1402 1400 1398 1397 1395 1394 1392 1390 1389 1388
1416 1416 1415 1415 1414 1414 1414 1414 1413 1413 1412 1412 1412 1411 1411 1411 1410 1410 1409 1409 1408 1406 1406 1406 1405 1404 1403 1401 1399 1397 1396 1394 1393 1391 1389 1387 1386 1385
1413 1412 1411 1411 1411 1410 1410 1410 1409 1409 1409 1409 1408 1408 1408 1407 1407 1406 1406 1405 1404 1403 1403 1402 1401 1400 1399 1397 1397 1395 1393 1392 1390 1389 1386 1384 1381 1381
1409 1408 1408 1408 1407 1407 1407 1406 1406 1406 1405 1405 1405 1405 1404 1404 1403 1403 1402 1402 1401 1400 1400 1399 1398 1397 1395 1393 1393 1393 1391 1389 1387 1385 1384 1382 1379 1377
1405 1405 1405 1404 1404 1403 1403 1403 1402 1402 1402 1402 1402 1401 1401 1401 1400 1399 1399 1398 1398 1397 1396 1396 1396 1395 1393 1392 1390 1390 1390 1387 1384 1382 1381 1379 1377 1376
1402 1402 1401 1401 1401 1400 1400 1399 1399 1399 1399 1398 1398 1398 1398 1397 1397 1396 1396 1395 1395 1394 1393 1393 1393 1393 1391 1390 1388 1386 1386 1385 1383 1381 1378 1376 1373 1371
1399 1398 1398 1398 1397 1397 1397 1396 1396 1395 1395 1395 1395 1395 1395 1394 1394 1393 1393 1392 1392 1391 1391 1390 1390 1389 1389 1387 1385 1384 1382 1382 1381 1379 1377 1375 1373 1369
1395 1395 1395 1394 1394 1394 1393 1393 1393 1392 1392 1392 1392 1392 1391 1391 1391 1390 1390 1390 1389 1388 1388 1387 1387 1386 1385 1384 1383 1381 1380 1378 1377 1375 1374 1373 1372 1370